User: anonymous   Login
Location: Unspecified
(0.0000°N, 0.0000°E)
Time: 00:05:07
(UTC+02:00)
Language:

NOSS 2-2 (E) - Orbit

View from above orbital plane
View from above orbital plane
View from above satellite
View from above satellite

Ground track
Ground track

The orbit data is extracted from the following two-line orbital elements,

1 21809U 91076E   14274.04395190 0.00000400  00000-0  19402-3 0    08
2 21809  63.3680 131.8896 0661000  12.5763 347.4237 13.40954957    08
Epoch (UTC): 01 October 2014 01:03:17
Eccentricity: 0.0661000
inclination: 63.3680°
perigee height: 611 km
apogee height: 1600 km
right ascension of ascending node: 131.8896°
argument of perigee: 12.5763°
revolutions per day: 13.40954957
mean anomaly at epoch: 347.4237°
orbit number at epoch: 0

The dashed part of the orbit path shows where the satellite is in the earth's shadow,  

DLR